AAL3323 KORD-KLAS

Flight info

Callsign AAL3323
Flight time N/A
Altitude 36000
Route MYKIE MONNY JORDY TODDO PECKS DVV J60 DBL GGAPP CHOWW4
Aircraft B738/M-SDE2E3FGHIRWXY/LB1

Departure

Time 2026-05-06 05:44
Airport Chicago O'Hare International Airport (KORD)

Arrival

Time N/A
Airport Harry Reid International Airport (KLAS)
Time Latitude Longitude Altitude Speed Heading
2026-05-06 05:21 41.97381 -87.88996 676 ft 0 kts 360°
2026-05-06 05:31 41.97379 -87.88996 676 ft 1 kts
2026-05-06 05:31 41.97364 -87.88996 676 ft 2 kts
2026-05-06 05:31 41.97348 -87.88997 676 ft 2 kts
2026-05-06 05:32 41.97332 -87.88998 676 ft 2 kts
2026-05-06 05:32 41.97316 -87.89001 676 ft 2 kts 11°
2026-05-06 05:32 41.97301 -87.89007 676 ft 2 kts 24°
2026-05-06 05:32 41.97288 -87.89017 676 ft 2 kts 53°
2026-05-06 05:33 41.97283 -87.89029 676 ft 1 kts 89°
2026-05-06 05:33 41.97283 -87.89030 676 ft 0 kts 90°
2026-05-06 05:39 41.97283 -87.89028 676 ft 1 kts 90°
2026-05-06 05:40 41.97283 -87.89016 676 ft 3 kts 90°
2026-05-06 05:40 41.97283 -87.88950 676 ft 7 kts 92°
2026-05-06 05:40 41.97242 -87.88920 676 ft 9 kts 170°
2026-05-06 05:40 41.97171 -87.88914 676 ft 12 kts 176°
2026-05-06 05:41 41.97077 -87.88907 676 ft 15 kts 176°
2026-05-06 05:41 41.97013 -87.88932 676 ft 10 kts 223°
2026-05-06 05:41 41.96976 -87.89018 676 ft 12 kts 237°
2026-05-06 05:41 41.96923 -87.89120 676 ft 13 kts 237°
2026-05-06 05:42 41.96917 -87.89141 676 ft 0 kts 258°
2026-05-06 05:43 41.96910 -87.89270 676 ft 46 kts 269°
2026-05-06 05:44 41.96904 -87.90044 676 ft 116 kts 270°
2026-05-06 05:44 41.96903 -87.91373 774 ft 160 kts 269°
2026-05-06 05:44 41.96882 -87.92963 1298 ft 182 kts 272°
2026-05-06 05:44 41.97064 -87.94544 2228 ft 168 kts 287°
2026-05-06 05:45 41.97417 -87.96033 2996 ft 168 kts 291°
2026-05-06 05:45 41.97804 -87.97508 3435 ft 185 kts 292°
2026-05-06 05:45 41.98263 -87.99246 3782 ft 205 kts 291°
2026-05-06 05:45 41.98753 -88.01153 4225 ft 220 kts 290°
2026-05-06 05:46 41.99322 -88.03044 5079 ft 218 kts 292°
2026-05-06 05:46 41.99920 -88.04932 5770 ft 222 kts 289°
2026-05-06 05:46 42.00477 -88.06938 6332 ft 236 kts 287°
2026-05-06 05:46 42.01019 -88.09088 7032 ft 242 kts 286°
2026-05-06 05:47 42.01480 -88.11005 7786 ft 243 kts 286°
2026-05-06 05:47 42.01985 -88.13151 8537 ft 248 kts 287°
2026-05-06 05:47 42.02497 -88.15369 9604 ft 236 kts 286°
2026-05-06 05:47 42.02973 -88.17479 10426 ft 238 kts 286°
2026-05-06 05:48 42.03453 -88.19633 11036 ft 247 kts 287°
2026-05-06 05:48 42.03962 -88.21951 11409 ft 264 kts 287°
2026-05-06 05:48 42.04495 -88.24400 11716 ft 283 kts 287°
2026-05-06 05:48 42.05054 -88.26993 12212 ft 293 kts 287°
2026-05-06 05:49 42.05609 -88.29594 12983 ft 293 kts 287°
2026-05-06 05:49 42.06175 -88.32256 13789 ft 294 kts 284°
2026-05-06 05:49 42.06757 -88.34934 14364 ft 301 kts 282°
2026-05-06 05:49 42.07320 -88.37625 15034 ft 303 kts 282°
2026-05-06 05:50 42.07910 -88.40371 15742 ft 305 kts 282°
2026-05-06 05:50 42.08508 -88.43125 16432 ft 307 kts 282°
2026-05-06 05:50 42.09099 -88.45884 17096 ft 308 kts 282°
2026-05-06 05:50 42.09688 -88.48669 17747 ft 310 kts 282°
2026-05-06 05:51 42.10285 -88.51505 18338 ft 314 kts 282°
2026-05-06 05:51 42.10873 -88.54318 18845 ft 318 kts 281°
2026-05-06 05:51 42.11474 -88.57230 19458 ft 320 kts 281°
2026-05-06 05:51 42.12068 -88.60113 20038 ft 322 kts 281°
2026-05-06 05:52 42.12664 -88.63021 20673 ft 322 kts 281°
2026-05-06 05:52 42.13261 -88.65937 21222 ft 324 kts 281°
2026-05-06 05:52 42.13859 -88.68858 21753 ft 326 kts 282°
2026-05-06 05:52 42.14465 -88.71817 22273 ft 328 kts 282°
2026-05-06 05:53 42.15071 -88.74782 22802 ft 330 kts 282°
2026-05-06 05:53 42.15654 -88.77777 23278 ft 331 kts 279°
2026-05-06 05:53 42.16000 -88.80849 23638 ft 335 kts 272°
2026-05-06 05:53 42.16108 -88.83977 24061 ft 335 kts 268°
2026-05-06 05:54 42.16093 -88.87081 24581 ft 335 kts 266°
2026-05-06 05:54 42.16028 -88.90280 25068 ft 336 kts 266°
2026-05-06 05:54 42.15956 -88.93425 25525 ft 337 kts 266°
2026-05-06 05:54 42.15880 -88.96582 25953 ft 339 kts 266°
2026-05-06 05:55 42.15802 -88.99759 26371 ft 340 kts 266°
2026-05-06 05:55 42.15721 -89.02939 26851 ft 340 kts 266°
2026-05-06 05:55 42.15637 -89.06128 27280 ft 341 kts 266°
2026-05-06 05:56 42.15572 -89.08570 27510 ft 344 kts 266°
2026-05-06 05:56 42.15485 -89.11782 27954 ft 343 kts 266°
2026-05-06 05:56 42.15398 -89.14989 28337 ft 345 kts 266°
2026-05-06 05:56 42.15307 -89.18232 28721 ft 346 kts 266°
2026-05-06 05:57 42.15213 -89.21516 29067 ft 347 kts 266°
2026-05-06 05:57 42.15122 -89.24750 29451 ft 348 kts 266°
2026-05-06 05:57 42.15032 -89.28013 29771 ft 349 kts 266°
2026-05-06 05:57 42.14957 -89.31275 30209 ft 347 kts 266°
2026-05-06 05:58 42.14878 -89.34527 30398 ft 351 kts 266°
2026-05-06 05:58 42.14795 -89.37830 30636 ft 354 kts 266°
2026-05-06 05:58 42.14708 -89.41136 30929 ft 355 kts 266°
2026-05-06 05:58 42.14622 -89.44346 31207 ft 356 kts 266°
2026-05-06 05:59 42.14531 -89.47666 31467 ft 357 kts 266°
2026-05-06 05:59 42.14443 -89.50789 31700 ft 359 kts 266°
2026-05-06 05:59 42.14347 -89.54133 31964 ft 360 kts 266°
2026-05-06 05:59 42.14249 -89.57517 32177 ft 363 kts 266°
2026-05-06 06:00 42.14148 -89.60952 32445 ft 364 kts 266°
2026-05-06 06:00 42.14047 -89.64329 32689 ft 365 kts 266°
2026-05-06 06:00 42.13943 -89.67747 32953 ft 366 kts 266°
2026-05-06 06:00 42.13839 -89.71163 33193 ft 367 kts 266°
2026-05-06 06:01 42.13731 -89.74648 33436 ft 368 kts 266°
2026-05-06 06:01 42.13622 -89.78107 33656 ft 370 kts 266°
2026-05-06 06:01 42.13514 -89.81531 33818 ft 373 kts 266°
2026-05-06 06:01 42.13400 -89.85068 34074 ft 374 kts 266°
2026-05-06 06:02 42.13287 -89.88568 34294 ft 375 kts 266°
2026-05-06 06:02 42.13172 -89.92078 34531 ft 376 kts 266°
2026-05-06 06:02 42.13057 -89.95590 34747 ft 377 kts 266°
2026-05-06 06:02 42.12939 -89.99119 34962 ft 378 kts 266°
2026-05-06 06:03 42.12820 -90.02663 35107 ft 381 kts 266°
2026-05-06 06:03 42.12699 -90.06239 35274 ft 383 kts 266°
2026-05-06 06:03 42.12576 -90.09811 35512 ft 384 kts 266°
2026-05-06 06:03 42.12450 -90.13460 35707 ft 385 kts 266°
2026-05-06 06:04 42.12324 -90.17060 35908 ft 386 kts 266°
2026-05-06 06:04 42.12197 -90.20684 35956 ft 389 kts 266°
2026-05-06 06:04 42.11937 -90.27954 35963 ft 388 kts 266°
2026-05-06 06:05 42.11675 -90.35181 35964 ft 387 kts 266°
2026-05-06 06:05 42.11408 -90.42407 35964 ft 387 kts 266°
2026-05-06 06:06 42.11138 -90.49612 35964 ft 388 kts 266°
2026-05-06 06:06 42.10860 -90.56890 35964 ft 388 kts 266°
2026-05-06 06:07 42.10576 -90.64181 35964 ft 388 kts 266°
2026-05-06 06:07 42.10291 -90.71418 35964 ft 388 kts 266°
2026-05-06 06:08 42.10001 -90.78666 35965 ft 388 kts 266°
2026-05-06 06:08 42.09713 -90.85912 35964 ft 388 kts 266°
2026-05-06 06:09 42.09437 -90.93139 35964 ft 388 kts 266°
2026-05-06 06:09 42.09131 -91.00448 35964 ft 389 kts 266°
2026-05-06 06:10 42.08815 -91.07700 35965 ft 388 kts 265°
2026-05-06 06:10 42.08492 -91.14945 35965 ft 388 kts 265°
2026-05-06 06:11 42.08164 -91.22239 35965 ft 389 kts 265°
2026-05-06 06:11 42.07864 -91.29492 35965 ft 389 kts 268°
2026-05-06 06:12 42.07915 -91.36746 35967 ft 389 kts 270°
2026-05-06 06:12 42.08029 -91.44021 35972 ft 389 kts 270°
2026-05-06 06:13 42.08123 -91.51297 35975 ft 390 kts 270°
2026-05-06 06:13 42.08203 -91.58571 35973 ft 389 kts 269°
2026-05-06 06:14 42.08272 -91.65894 35978 ft 389 kts 269°
2026-05-06 06:14 42.08331 -91.73176 35988 ft 390 kts 269°
2026-05-06 06:15 42.08422 -91.80445 35985 ft 389 kts 270°
2026-05-06 06:15 42.08504 -91.87721 35985 ft 389 kts 270°
2026-05-06 06:16 42.08573 -91.95040 35995 ft 389 kts 269°
2026-05-06 06:16 42.08633 -92.02316 35996 ft 389 kts 269°
2026-05-06 06:17 42.08684 -92.09582 35998 ft 389 kts 269°
2026-05-06 06:17 42.08730 -92.16841 36006 ft 389 kts 269°
2026-05-06 06:18 42.08770 -92.24107 36008 ft 388 kts 269°
2026-05-06 06:18 42.08804 -92.31359 36010 ft 388 kts 269°
2026-05-06 06:19 42.08834 -92.38654 36006 ft 387 kts 269°
2026-05-06 06:19 42.08859 -92.45895 36005 ft 387 kts 269°
2026-05-06 06:20 42.08880 -92.53168 36008 ft 386 kts 269°
2026-05-06 06:20 42.08895 -92.60384 36005 ft 386 kts 269°
2026-05-06 06:21 42.08906 -92.67579 36000 ft 385 kts 269°
2026-05-06 06:21 42.08913 -92.74776 36002 ft 385 kts 269°
2026-05-06 06:22 42.08915 -92.81946 36001 ft 385 kts 269°
2026-05-06 06:22 42.08912 -92.89225 35996 ft 386 kts 269°
2026-05-06 06:23 42.08906 -92.96433 35997 ft 385 kts 269°
2026-05-06 06:23 42.08894 -93.03628 35998 ft 385 kts 269°
2026-05-06 06:24 42.08889 -93.10835 36006 ft 387 kts 269°
2026-05-06 06:24 42.08888 -93.18079 36006 ft 387 kts 269°
2026-05-06 06:25 42.08864 -93.25302 36007 ft 386 kts 268°
2026-05-06 06:26 42.08805 -93.36195 36019 ft 388 kts 268°
2026-05-06 06:26 42.08760 -93.43423 36022 ft 387 kts 268°
2026-05-06 06:27 42.08705 -93.50655 36023 ft 386 kts 267°
2026-05-06 06:27 42.08051 -93.57809 36025 ft 387 kts 260°
2026-05-06 06:28 42.07142 -93.64926 36025 ft 387 kts 260°
2026-05-06 06:28 42.06375 -93.70892 36025 ft 386 kts 260°
2026-05-06 06:29 42.05300 -93.79201 36025 ft 388 kts 260°
2026-05-06 06:29 42.04529 -93.85139 36025 ft 388 kts 260°
2026-05-06 06:30 42.03632 -93.92006 36027 ft 386 kts 260°
2026-05-06 06:30 42.02680 -93.99319 36028 ft 387 kts 260°
2026-05-06 06:31 42.01773 -94.06506 36034 ft 389 kts 260°
2026-05-06 06:31 42.00855 -94.13649 36030 ft 387 kts 260°
2026-05-06 06:32 41.99935 -94.20735 36025 ft 386 kts 260°
2026-05-06 06:32 41.99002 -94.27849 36031 ft 388 kts 260°
2026-05-06 06:33 41.98061 -94.34974 36029 ft 388 kts 260°
2026-05-06 06:33 41.97111 -94.42122 36026 ft 387 kts 260°
2026-05-06 06:34 41.96162 -94.49226 36032 ft 388 kts 259°
2026-05-06 06:34 41.95204 -94.56358 36039 ft 388 kts 259°
2026-05-06 06:35 41.94236 -94.63526 36037 ft 387 kts 259°
2026-05-06 06:35 41.93273 -94.70625 36039 ft 388 kts 259°
2026-05-06 06:36 41.92301 -94.77753 36048 ft 389 kts 259°
2026-05-06 06:36 41.91324 -94.84881 36052 ft 388 kts 259°
2026-05-06 06:37 41.90346 -94.91983 36054 ft 388 kts 259°
2026-05-06 06:37 41.89380 -94.99151 36062 ft 389 kts 260°
2026-05-06 06:38 41.88398 -95.06270 36064 ft 388 kts 259°
2026-05-06 06:38 41.87403 -95.13356 36065 ft 387 kts 259°
2026-05-06 06:39 41.86398 -95.20453 36074 ft 389 kts 259°
2026-05-06 06:39 41.85384 -95.27585 36079 ft 390 kts 259°
2026-05-06 06:40 41.84372 -95.34687 36079 ft 387 kts 259°
2026-05-06 06:40 41.83354 -95.41821 36079 ft 388 kts 259°
2026-05-06 06:41 41.82336 -95.48896 36079 ft 387 kts 259°
2026-05-06 06:41 41.81313 -95.55951 36078 ft 385 kts 259°
2026-05-06 06:42 41.80288 -95.62981 36078 ft 385 kts 259°
2026-05-06 06:42 41.79253 -95.70041 36082 ft 388 kts 259°
2026-05-06 06:43 41.78202 -95.77173 36081 ft 388 kts 259°
2026-05-06 06:43 41.77177 -95.84236 36080 ft 387 kts 259°
2026-05-06 06:44 41.76162 -95.91316 36083 ft 390 kts 259°
2026-05-06 06:44 41.75128 -95.98444 36083 ft 391 kts 259°
2026-05-06 06:45 41.74084 -96.05566 36081 ft 390 kts 259°
2026-05-06 06:45 41.73032 -96.12687 36082 ft 391 kts 259°
2026-05-06 06:46 41.71967 -96.19857 36083 ft 391 kts 259°
2026-05-06 06:46 41.70904 -96.26968 36083 ft 390 kts 259°
2026-05-06 06:47 41.69838 -96.34064 36083 ft 389 kts 259°
2026-05-06 06:47 41.68766 -96.41162 36082 ft 387 kts 259°
2026-05-06 06:48 41.67697 -96.48210 36082 ft 387 kts 259°
2026-05-06 06:48 41.66623 -96.55259 36082 ft 386 kts 259°
2026-05-06 06:49 41.65618 -96.61826 36083 ft 386 kts 259°
2026-05-06 06:49 41.64533 -96.68884 36082 ft 385 kts 259°
2026-05-06 06:50 41.63452 -96.75885 36083 ft 385 kts 259°
2026-05-06 06:50 41.62369 -96.82875 36085 ft 385 kts 259°
2026-05-06 06:51 41.61277 -96.89888 36087 ft 386 kts 259°
2026-05-06 06:51 41.60176 -96.96935 36087 ft 385 kts 259°
2026-05-06 06:52 41.59079 -97.03920 36085 ft 385 kts 258°
2026-05-06 06:52 41.57975 -97.10921 36059 ft 388 kts 258°
2026-05-06 06:53 41.56861 -97.17956 36057 ft 387 kts 258°
2026-05-06 06:53 41.55735 -97.25042 36082 ft 387 kts 258°
2026-05-06 06:54 41.54611 -97.32077 36101 ft 389 kts 258°
2026-05-06 06:54 41.53474 -97.39174 36109 ft 388 kts 258°
2026-05-06 06:55 41.52342 -97.46202 36109 ft 388 kts 258°
2026-05-06 06:55 41.51206 -97.53230 36105 ft 389 kts 258°
2026-05-06 06:56 41.50064 -97.60267 36104 ft 389 kts 258°
2026-05-06 06:56 41.48919 -97.67294 36100 ft 387 kts 258°
2026-05-06 06:57 41.47773 -97.74297 36097 ft 386 kts 258°
2026-05-06 06:57 41.46623 -97.81295 36101 ft 388 kts 258°
2026-05-06 06:58 41.45462 -97.88333 36098 ft 387 kts 258°
2026-05-06 06:58 41.44304 -97.95321 36096 ft 385 kts 258°
2026-05-06 06:59 41.43145 -98.02293 36102 ft 388 kts 258°
2026-05-06 06:59 41.41975 -98.09297 36105 ft 388 kts 258°
2026-05-06 07:00 41.40802 -98.16295 36103 ft 386 kts 258°
2026-05-06 07:00 41.39623 -98.23305 36104 ft 387 kts 258°
2026-05-06 07:01 41.38449 -98.30247 36105 ft 390 kts 257°
2026-05-06 07:01 41.37648 -98.34973 36104 ft 389 kts 258°